This is the latest recevied weather packets stored in our database for station/object HS2LXA-13. If no packets are shown the sender has not sent any weather packets the latest 10 day(s).
| Time | Temp. | Humidity | Pressure | Rain* | Wind** | Luminosity | Snow |
|---|---|---|---|---|---|---|---|
| 1777975759 | 31.11° C | 93% | 1007.6 hPa | 2.03 mm | - | 0 W/m² | - |
| 1777975158 | 30.56° C | 94% | 1007.4 hPa | 2.03 mm | - | 0 W/m² | - |
| 1777974557 | 31.11° C | 93% | 1007.2 hPa | 2.03 mm | - | 0 W/m² | - |
| 1777973956 | 31.11° C | 95% | 1007.3 hPa | 2.03 mm | - | 0 W/m² | - |
| 1777973355 | 30.56° C | 97% | 1007.4 hPa | 2.03 mm | - | 0 W/m² | - |
| 1777972753 | 30.56° C | 98% | 1007.5 hPa | 2.03 mm | - | 0 W/m² | - |
| 1777972152 | 30.56° C | 97% | 1007.7 hPa | 2.03 mm | - | 0 W/m² | - |
| 1777971550 | 30.56° C | 97% | 1007.8 hPa | 2.03 mm | - | 0 W/m² | - |
| 1777970950 | 30.56° C | 97% | 1007.8 hPa | 2.03 mm | - | 0 W/m² | - |
| 1777970349 | 30° C | 96% | 1007.8 hPa | 2.03 mm | - | 0 W/m² | - |
| 1777969747 | 30° C | 96% | 1008.1 hPa | 2.03 mm | - | 0 W/m² | - |
| 1777969146 | 30° C | 94% | 1008.2 hPa | 2.03 mm | - | 0 W/m² | - |
| 1777968544 | 30.56° C | 94% | 1008.5 hPa | 2.03 mm | - | 0 W/m² | - |
| 1777967561 | 30.56° C | 93% | 1008.4 hPa | 2.03 mm | - | 0 W/m² | - |
| 1777966960 | 30.56° C | 93% | 1008.6 hPa | 2.03 mm | - | 0 W/m² | - |
| 1777966357 | 30.56° C | 92% | 1008.7 hPa | 2.03 mm | - | 0 W/m² | - |
| 1777965755 | 30.56° C | 90% | 1009 hPa | 1.78 mm | - | 0 W/m² | - |
| 1777965154 | 30.56° C | 89% | 1009.3 hPa | 1.52 mm | - | 0 W/m² | - |
| 1777964554 | 31.11° C | 86% | 1009.6 hPa | 1.02 mm | - | 0 W/m² | - |
| 1777963953 | 32.22° C | 81% | 1009.4 hPa | 0.51 mm | - | 0 W/m² | - |
| 1777963351 | 32.22° C | 81% | 1009.7 hPa | 0.51 mm | - | 0 W/m² | - |
| 1777962751 | 32.78° C | 81% | 1009.7 hPa | 0.51 mm | - | 0 W/m² | - |
| 1777962150 | 32.22° C | 80% | 1009.5 hPa | 0.51 mm | - | 0 W/m² | - |
| 1777961550 | 33.33° C | 78% | 1009.9 hPa | 0.51 mm | - | 0 W/m² | - |
| 1777960948 | 35° C | 78% | 1010 hPa | 0.51 mm | - | 0 W/m² | - |
* Rain latest hour (hover to see other rain measurements)
** Current wind speed in m/s (hover to see current wind gust speed)